User: anonymous   Login
Location: Albuquerque Trailhead
(34.7934°N, 106.3736°W)
Time: 01:08:51
(UTC+00:00)
Language:

Cosmos 1674 - Orbit

View from above orbital plane
View from above orbital plane
View from above satellite
View from above satellite

Ground track
Ground track

The orbit data is extracted from the following two-line orbital elements,

1 15944U 85069A   21270.50644413  .00001294  00000-0  57263-4 0  9993
2 15944  82.5047 118.1781 0018165  83.9393 276.3911 15.20601515975134
Epoch (UTC): 27 September 2021 12:09:16
Eccentricity: 0.0018165
inclination: 82.5047°
perigee height: 491 km
apogee height: 516 km
right ascension of ascending node: 118.1781°
argument of perigee: 83.9393°
revolutions per day: 15.20601515
mean anomaly at epoch: 276.3911°
orbit number at epoch: 97513

The dashed part of the orbit path shows where the satellite is in the earth's shadow,  

DLR